Location: Newark
(21.1200°N, 73.4000°E)
Time: 18:06:01
(UTC+00:00)

Courier 1B Rocket - Pass Details

Date: 27 January 2020
Orbit: 920 x 1202 km, 28.2° (Epoch: 22 February)

Event Time Altitude Azimuth Distance (km) Brightness Sun altitude
Rises 10:57:57 0° 289° (WNW) 3,738 8.6 23.3°
Reaches altitude 10° 11:00:42 10° 288° (WNW) 2,746 8.0 22.8°
Maximum altitude 11:07:19 79° 203° (SSW) 966 5.6 21.5°
Drops below altitude 10° 11:13:35 10° 117° (ESE) 2,613 7.0 20.2°
Sets 11:16:09 0° 116° (ESE) 3,545 7.6 19.7°
